"Pseudo-MPEC" for C2YMPK2

Created 2020 Aug 13 21:07:08 UT using Find_Orb

Click here for an explanation of pseudo-MPECs

 
 Astrometry: 
     C2YMPK2  C2020 07 30.42800 23 32 54.60 +06 09 48.8    ~7UB7 21.4 GVNEOCPG96
     C2YMPK2  C2020 07 30.43523 23 32 55.41 +06 09 56.7    ~7UB7 22.7 GVNEOCPG96
     C2YMPK2  C2020 07 30.44244 23 32 56.27 +06 10 05.4    ~7UB7 21.8 GVNEOCPG96
     C2YMPK2  C2020 07 30.44965 23 32 57.13 +06 10 13.2    ~7UB7 21.1 GVNEOCPG96
     C2YMPK2  C2020 07 31.31078 23 34 43.50 +06 26 38.0    ~7V7q 21.7 GVNEOCPG96
     C2YMPK2  C2020 07 31.31329 23 34 43.75 +06 26 40.9    ~7V7q 22.1 GVNEOCPG96
     C2YMPK2  C2020 07 31.31581 23 34 44.04 +06 26 44.4    ~7V7q 22.1 GVNEOCPG96
     C2YMPK2  C2020 07 31.31726 23 34 44.23 +06 26 45.5    ~7V7q 22.6 GVNEOCPG96
     C2YMPK2  C2020 08 13.42403 23 59 34.54 +10 14 18.3    ~8DAq 20.9 GVNEOCPG96
     C2YMPK2  C2020 08 13.42850 23 59 34.96 +10 14 22.3    ~8DAq       VNEOCPG96
     C2YMPK2  C2020 08 13.43274 23 59 35.36 +10 14 26.3    ~8DAq 20.8 GVNEOCPG96
     C2YMPK2  C2020 08 13.43729 23 59 35.78 +10 14 30.4    ~8DAq 21.1 GVNEOCPG96

Station data:
(G96) Mt. Lemmon Survey  (N32.442754 W110.788720)  US/Arizona.  Observers T.
   A. Pruyne, B. M. Africano, E. J. Christensen, G. A. Farneth, D. C. Fuls,
   A. R. Gibbs, A. D. Grauer, H. Gröller, J. A. Johnson, R. A. Kowalski, S.
   M. Larson, G. J. Leonard, D. Rankin, R. L. Seaman, F. C. Shelly. 1.5-m
   reflector + 10K CCD.

Orbital elements:  C2YMPK2
   Perihelion 2020 Aug 24.487552 +/- 1.08 TT = 11:42:04 (JD 2459085.987552)
Epoch 2020 Aug 13.0 TT = JDT 2459074.5   Earth MOID: 0.2890   Ma: 0.0510
M 356.59109432 +/- 0.6              (J2000 ecliptic)          AutoNEOCP
n   0.29674779 +/- 0.0321           Peri.   98.55688 +/- 1.9
a   2.22609853 +/- 0.16             Node   241.94913 +/- 1.4
e   0.4189793 +/- 0.0355            Incl.    2.61873 +/- 0.09
P   3.32                   H 22.0   G  0.15   U 10.4  
q 1.29340929 +/- 0.0154    Q 3.15878776 +/- 0.334
From 12 observations 2020 July 30-Aug. 13; mean residual 0".23
Residuals in arcseconds: 
200730 G96  .09-  .23+    200731 G96  .41+  .19-    200813 G96  .12+  .03+    
200730 G96  .42-  .18-    200731 G96  .21-  .17-    200813 G96  .05+  .07-    
200730 G96  .03+  .24+    200731 G96  .25-  .44+    200813 G96  .00   .05+    
200730 G96  .47+  .24-    200731 G96  .07+  .13-    200813 G96  .18-  .02-    

Ephemerides (geocentric):
Date (UTC) HH   RA              Dec         delta   r     elong  mag " sig PA
---- -- -- --  -------------   -----------  ------ ------ -----  --- ---- ---
2020 08 13 21  00 00 21.259   +10 21 19.45  .36063 1.2976 136.2 21.7 9.23  57
2020 08 13 22  00 00 25.549   +10 21 57.29  .36053 1.2975 136.2 21.7 9.30  57
2020 08 13 23  00 00 29.835   +10 22 35.09  .36042 1.2975 136.2 21.7 9.36  57
2020 08 14 00  00 00 34.119   +10 23 12.85  .36032 1.2975 136.3 21.7 9.43  57
2020 08 14 01  00 00 38.399   +10 23 50.57  .36021 1.2974 136.3 21.7 9.50  57
2020 08 14 02  00 00 42.676   +10 24 28.25  .36011 1.2974 136.3 21.7 9.57  57
2020 08 14 03  00 00 46.950   +10 25 05.89  .36001 1.2974 136.3 21.7 9.64  57
2020 08 14 04  00 00 51.220   +10 25 43.49  .35990 1.2973 136.3 21.7 9.70  57
2020 08 14 05  00 00 55.488   +10 26 21.05  .35980 1.2973 136.4 21.7 9.77  58
2020 08 14 06  00 00 59.752   +10 26 58.57  .35970 1.2973 136.4 21.7 9.84  58
2020 08 14 07  00 01 04.013   +10 27 36.05  .35959 1.2973 136.4 21.7 9.91  58
2020 08 14 08  00 01 08.271   +10 28 13.49  .35949 1.2972 136.4 21.7 9.98  58
2020 08 14 09  00 01 12.525   +10 28 50.89  .35939 1.2972 136.4 21.7 10.0  58
2020 08 14 10  00 01 16.776   +10 29 28.25  .35928 1.2972 136.4 21.7 10.1  58
2020 08 14 11  00 01 21.025   +10 30 05.57  .35918 1.2971 136.5 21.7 10.2  58
2020 08 14 12  00 01 25.269   +10 30 42.84  .35908 1.2971 136.5 21.7 10.3  58
2020 08 14 13  00 01 29.511   +10 31 20.08  .35898 1.2971 136.5 21.7 10.3  58
2020 08 14 14  00 01 33.750   +10 31 57.28  .35887 1.2970 136.5 21.7 10.4  58
2020 08 14 15  00 01 37.985   +10 32 34.43  .35877 1.2970 136.5 21.7 10.5  58
2020 08 14 16  00 01 42.217   +10 33 11.55  .35867 1.2970 136.6 21.7 10.5  58
2020 08 14 17  00 01 46.446   +10 33 48.62  .35857 1.2969 136.6 21.7 10.6  58
2020 08 14 18  00 01 50.671   +10 34 25.65  .35847 1.2969 136.6 21.7 10.7  58
2020 08 14 19  00 01 54.893   +10 35 02.64  .35836 1.2969 136.6 21.7 10.7  58
2020 08 14 20  00 01 59.112   +10 35 39.59  .35826 1.2969 136.6 21.7 10.8  58
2020 08 14 21  00 02 03.328   +10 36 16.50  .35816 1.2968 136.7 21.7 10.9  58
2020 08 14 22  00 02 07.540   +10 36 53.37  .35806 1.2968 136.7 21.7 11.0  58
2020 08 14 23  00 02 11.750   +10 37 30.19  .35796 1.2968 136.7 21.7 11.0  58
2020 08 15 00  00 02 15.955   +10 38 06.98  .35786 1.2967 136.7 21.7 11.1  58
2020 08 15 01  00 02 20.158   +10 38 43.72  .35776 1.2967 136.7 21.7 11.2  58
2020 08 15 02  00 02 24.357   +10 39 20.42  .35766 1.2967 136.7 21.7 11.2  59
2020 08 15 03  00 02 28.553   +10 39 57.08  .35756 1.2967 136.8 21.7 11.3  59
2020 08 15 04  00 02 32.746   +10 40 33.70  .35746 1.2966 136.8 21.7 11.4  59
2020 08 15 05  00 02 36.936   +10 41 10.27  .35736 1.2966 136.8 21.7 11.5  59
2020 08 15 06  00 02 41.122   +10 41 46.81  .35726 1.2966 136.8 21.7 11.5  59
2020 08 15 07  00 02 45.305   +10 42 23.30  .35716 1.2965 136.8 21.7 11.6  59
2020 08 15 08  00 02 49.484   +10 42 59.75  .35706 1.2965 136.9 21.7 11.7  59
2020 08 15 09  00 02 53.660   +10 43 36.16  .35696 1.2965 136.9 21.7 11.7  59
2020 08 15 10  00 02 57.833   +10 44 12.53  .35686 1.2965 136.9 21.7 11.8  59
2020 08 15 11  00 03 02.003   +10 44 48.85  .35676 1.2964 136.9 21.7 11.9  59
2020 08 15 12  00 03 06.169   +10 45 25.14  .35666 1.2964 136.9 21.7 11.9  59
2020 08 15 13  00 03 10.332   +10 46 01.38  .35656 1.2964 137.0 21.7 12.0  59
2020 08 15 14  00 03 14.492   +10 46 37.58  .35646 1.2963 137.0 21.7 12.1  59
2020 08 15 15  00 03 18.648   +10 47 13.73  .35636 1.2963 137.0 21.7 12.2  59
2020 08 15 16  00 03 22.801   +10 47 49.85  .35627 1.2963 137.0 21.7 12.2  59
2020 08 15 17  00 03 26.951   +10 48 25.92  .35617 1.2963 137.0 21.7 12.3  59
2020 08 15 18  00 03 31.097   +10 49 01.95  .35607 1.2962 137.1 21.7 12.4  59
2020 08 15 19  00 03 35.240   +10 49 37.93  .35597 1.2962 137.1 21.7 12.5  59
2020 08 15 20  00 03 39.380   +10 50 13.88  .35587 1.2962 137.1 21.7 12.5  59